Theta_e
323 325 327 328 329 329 330 331 330 327 326 327 326 326 326 326 326 326 325 326 327 326 325 324 324 324 323 323 323 326 327 327 327 327 326 326 324 324 324 323 317 315 316 319 319 318 319 315 315 317 317 316 314 320 316 317 315 318 319 314 313 313 314 310 305 305 309 317 315 308 311 310 308 307 306 307 308 308 310 309 305 305 306 303 303
327 326 325 327 328 329 330 331 331 328 325 327 325 324 324 324 326 325 325 326 325 325 323 326 325 324 322 322 324 323 326 326 327 327 325 325 325 327 326 325 321 321 323 317 317 321 320 316 314 317 316 317 317 310 311 313 312 310 310 312 311 314 313 311 308 306 304 309 313 309 311 311 308 310 313 313 311 310 308 309 309 307 308 305 303
327 327 325 328 330 330 331 331 331 332 325 325 324 322 323 324 325 325 324 327 326 326 326 327 327 326 324 326 323 324 325 325 328 328 326 326 325 326 327 325 323 322 322 321 318 320 320 319 318 319 323 318 317 317 316 315 314 310 311 312 312 313 313 314 312 307 307 308 314 309 311 315 312 308 310 312 311 310 308 309 309 311 311 307 305
328 327 327 326 328 328 328 330 330 328 332 324 324 323 323 324 325 327 323 325 324 328 328 326 328 327 326 324 324 324 325 326 328 329 328 327 326 326 325 325 325 325 324 322 321 321 322 322 320 320 319 319 319 318 318 317 315 314 313 314 315 315 316 318 316 313 313 312 313 310 312 314 312 311 311 311 310 310 309 309 310 309 309 311 310
326 327 327 327 329 329 326 324 324 325 324 325 325 323 323 323 323 323 326 325 324 326 325 325 325 326 327 324 324 324 325 325 327 328 328 328 328 327 325 325 326 325 326 324 325 322 322 323 323 322 321 320 319 319 317 316 315 315 314 313 312 317 320 319 317 315 314 312 313 312 313 313 313 311 310 309 310 309 310 309 309 309 310 311 314
326 328 327 327 326 325 325 323 322 323 324 321 321 325 324 324 324 324 323 323 325 327 325 323 324 323 324 325 325 324 325 326 325 325 325 327 328 327 327 325 324 322 321 321 321 321 324 323 323 321 322 321 320 319 319 317 316 315 314 316 314 313 315 316 316 317 315 313 313 313 313 312 313 314 313 311 311 311 310 310 311 312 312 313 313
325 324 326 326 324 322 322 322 322 322 320 321 324 327 328 325 324 324 323 323 323 323 324 323 326 326 323 323 322 322 323 323 325 325 325 325 325 323 322 321 321 322 321 323 322 322 321 322 323 323 323 323 322 321 320 319 320 316 315 316 315 314 313 314 314 314 314 313 312 313 311 313 314 310 314 312 310 310 308 308 308 311 312 310 311
323 323 325 325 324 324 323 323 324 322 322 323 323 325 326 326 326 325 326 326 326 323 323 324 324 322 321 323 323 322 323 322 324 324 325 323 323 322 322 320 321 321 320 321 323 322 323 324 324 324 324 323 322 322 322 320 320 318 319 317 317 315 312 312 313 312 313 312 312 311 313 310 311 313 314 312 309 309 309 309 307 307 309 311 309
323 320 320 320 323 323 321 321 323 323 322 322 321 322 325 325 323 324 324 323 324 323 322 324 324 322 322 321 321 322 322 322 316 314 320 323 323 322 321 321 321 320 320 321 322 322 324 324 322 322 323 319 310 310 310 314 320 320 319 317 315 315 313 313 312 310 310 310 310 312 311 311 310 311 309 308 308 306 308 309 307 308 308 307 308
322 320 322 322 322 322 323 321 322 323 322 321 323 324 323 323 324 323 322 322 321 321 322 322 322 322 320 320 319 320 321 319 305 300 301 315 321 322 319 321 321 320 318 318 320 322 323 323 323 322 315 314 308 301 299 301 306 312 312 313 315 315 313 311 310 310 310 308 308 308 308 308 308 310 308 308 309 311 308 307 305 306 305 305 307
323 322 321 322 324 323 323 323 324 324 324 323 321 324 324 323 322 321 321 322 322 323 324 323 323 321 320 320 319 320 322 309 295 294 295 298 318 323 322 321 321 320 318 318 320 321 323 323 322 317 316 315 308 300 299 297 296 296 297 300 305 310 312 311 311 311 309 308 308 309 307 307 309 309 308 308 308 306 305 305 305 304 302 301 300
322 322 323 324 323 322 323 322 323 323 323 322 322 322 323 323 322 322 322 322 323 323 323 322 322 322 322 321 321 320 317 296 292 293 294 294 299 314 323 322 321 320 318 320 321 321 322 322 324 324 323 323 320 310 302 295 295 296 295 295 293 293 297 305 306 308 306 305 306 307 308 306 306 308 306 305 304 305 305 303 303 302 301 299 299
321 321 321 321 321 321 320 321 321 322 322 322 322 321 321 322 321 321 321 323 323 322 321 322 321 321 321 320 320 319 315 292 292 293 294 293 294 300 318 321 319 319 321 321 320 320 320 319 320 323 320 318 317 318 311 305 297 296 296 296 296 294 293 293 297 306 305 305 304 304 306 306 306 305 305 304 305 303 303 301 302 300 300 298 298
321 321 320 319 319 321 319 319 320 321 321 321 322 321 321 321 322 322 321 322 321 321 321 320 319 320 321 320 319 315 312 294 291 293 293 292 293 294 318 318 319 318 318 319 319 318 318 318 317 318 319 316 311 316 315 311 309 308 308 309 306 301 297 297 297 297 301 305 304 303 308 307 305 305 306 305 303 301 300 299 299 298 298 298 300
319 320 320 320 319 319 320 321 320 319 319 319 321 320 320 320 321 321 321 321 320 319 319 319 319 319 320 319 313 312 311 291 291 292 292 292 292 293 316 319 318 316 318 318 318 318 317 319 317 316 313 307 301 301 311 314 315 315 313 310 307 305 302 300 299 301 304 306 305 306 302 302 303 303 302 302 302 301 301 299 299 299 299 300 300
311 314 314 314 314 316 317 317 318 319 319 319 320 319 320 320 320 322 322 321 322 321 320 321 320 319 319 314 312 311 307 291 292 293 293 292 291 309 318 316 316 315 316 315 311 309 310 311 316 313 308 304 296 292 295 304 313 312 311 308 306 302 297 295 293 295 298 299 298 299 299 297 296 298 297 298 298 298 298 298 298 297 297 295 294
310 311 311 311 313 314 315 315 317 316 316 317 318 319 320 320 320 320 320 320 320 320 319 319 319 318 316 313 311 310 309 295 291 293 293 291 299 316 318 316 313 314 314 311 307 304 303 308 314 309 306 300 292 291 292 300 311 311 310 309 307 304 300 298 292 291 291 291 291 291 290 290 291 290 291 292 294 295 294 293 293 294 292 291 292
309 310 310 311 312 312 313 313 317 315 318 314 314 317 318 319 318 318 318 317 316 317 316 316 317 316 313 312 311 309 310 300 291 292 292 291 294 308 313 315 312 311 311 310 307 302 301 303 309 306 302 298 291 291 293 304 309 309 310 309 306 303 302 302 303 300 291 291 291 290 290 291 291 291 292 291 290 293 294 292 294 294 293 292 291
307 307 308 310 310 311 312 312 312 313 312 314 317 317 316 316 315 316 315 314 314 314 314 313 313 314 314 312 310 311 310 302 290 293 291 291 296 310 311 311 309 310 310 309 307 303 299 297 298 298 298 293 290 291 292 301 307 306 306 305 305 304 303 304 303 301 300 300 298 296 296 293 293 293 295 292 291 294 295 295 295 293 291 292 293
306 307 308 308 309 310 313 314 314 312 312 315 317 317 319 318 318 317 317 314 312 312 311 311 311 311 313 312 311 311 310 309 299 290 291 291 291 303 312 311 310 309 308 308 307 304 301 297 294 290 290 290 290 291 292 294 304 303 302 301 300 299 299 304 300 300 299 299 299 301 301 301 298 297 298 297 294 296 295 295 296 296 295 293 294
305 306 307 308 308 309 310 311 313 318 318 317 315 317 317 316 316 316 316 316 316 315 311 312 311 312 312 313 313 312 311 310 305 289 287 289 290 298 310 312 308 308 306 307 306 305 302 298 295 291 290 290 291 291 292 292 295 298 297 296 295 295 294 300 299 294 299 299 299 299 300 300 300 301 300 300 297 296 295 295 297 297 296 294 292
303 303 305 306 307 307 309 310 312 312 313 315 316 315 316 318 315 316 315 313 314 314 314 312 311 310 311 311 311 313 311 308 308 293 289 292 292 296 310 313 304 308 308 307 306 304 301 298 295 291 290 290 290 291 291 291 292 295 290 289 289 288 293 294 297 299 300 300 299 297 297 295 294 296 295 296 298 298 297 297 298 297 296 295 293
303 303 304 304 305 306 307 309 310 312 312 312 312 312 314 316 317 316 315 313 312 313 312 312 311 311 310 310 310 312 312 308 301 303 293 294 291 290 291 303 295 310 307 306 304 303 301 297 294 291 290 290 290 290 290 292 292 290 288 289 288 288 291 294 295 298 296 296 297 295 294 294 295 294 295 294 295 295 295 295 295 295 295 295 295
302 302 302 303 304 304 304 306 308 310 311 312 310 311 312 313 312 313 312 311 310 309 309 310 310 308 308 308 309 310 312 310 301 300 298 293 291 291 292 290 293 304 307 307 305 302 298 295 292 289 289 289 289 289 290 291 291 288 288 288 288 290 292 294 294 296 294 294 294 294 294 295 294 294 294 294 293 294 295 295 295 294 294 295 294
301 301 302 302 302 303 304 305 306 307 307 307 307 308 309 312 311 313 313 310 308 307 308 307 306 306 306 306 306 307 311 310 307 300 295 292 291 291 291 291 290 296 308 307 305 302 294 290 289 289 289 289 288 289 289 288 288 287 287 287 292 291 294 295 296 296 294 292 293 295 294 293 294 294 294 293 294 294 293 295 294 294 294 294 293
300 300 300 301 301 301 301 301 301 303 305 306 306 306 306 308 308 308 308 308 307 307 306 305 305 306 306 306 307 308 309 310 307 301 295 294 292 289 290 290 291 291 292 293 291 290 289 289 289 289 289 289 292 293 293 293 289 288 288 288 293 293 295 295 295 294 293 292 293 292 293 293 293 294 294 294 293 291 292 292 291 291 291 291 290
298 299 299 299 300 301 301 301 300 300 301 302 304 305 305 306 307 307 307 306 306 306 306 305 305 305 307 306 307 307 307 308 308 303 301 300 299 296 297 294 291 292 293 292 291 290 289 291 290 290 290 290 290 291 292 290 291 291 291 294 294 295 296 294 294 293 293 293 292 293 292 292 293 292 291 291 290 291 292 290 290 290 291 291 290
297 297 297 298 298 299 299 294 297 300 301 301 301 303 305 306 305 305 305 306 307 308 308 307 305 307 306 306 306 305 305 306 306 306 304 303 302 301 302 299 300 300 297 296 294 293 292 290 291 294 294 293 294 295 294 294 292 291 294 294 295 295 294 292 293 293 293 295 293 291 291 291 290 290 290 289 289 290 291 291 290 290 291 290 288
296 296 296 296 297 298 299 299 299 299 299 300 300 301 301 301 302 305 307 310 308 306 306 308 308 308 305 305 305 305 304 305 306 298 298 298 299 303 302 301 303 302 298 294 295 295 293 293 292 294 293 289 290 292 293 293 291 294 298 296 294 295 296 294 294 293 292 292 290 290 286 290 290 290 290 289 290 290 291 290 290 290 290 290 288
295 295 296 296 296 297 297 297 298 299 299 299 299 300 294 295 295 301 305 293 294 300 300 305 309 308 307 305 306 304 303 306 299 298 298 296 295 296 297 297 297 300 293 292 294 292 290 290 290 290 290 290 290 290 291 290 290 290 289 289 291 292 291 291 293 291 289 289 288 287 287 286 286 288 288 288 289 290 290 289 289 289 288 287 287
293 293 294 295 294 296 296 296 297 298 298 299 299 298 299 304 288 287 289 292 291 290 292 294 295 299 305 305 303 298 297 294 293 295 295 292 293 294 294 295 294 292 292 293 293 291 291 291 291 291 291 292 291 291 289 289 288 288 288 289 289 290 289 290 292 288 288 287 287 288 287 286 286 287 288 287 288 288 288 289 289 289 288 287 287
293 293 293 294 294 293 295 295 296 296 297 298 298 298 298 298 302 290 288 289 289 289 289 290 290 290 295 298 297 296 291 291 292 293 294 293 294 293 293 292 291 292 292 293 293 292 292 291 291 291 292 291 290 289 289 289 288 288 289 289 288 288 288 288 290 291 288 287 287 287 286 287 287 288 288 287 287 287 288 287 287 287 287 287 287
292 292 293 293 293 293 292 294 295 296 297 297 298 298 298 297 297 298 292 289 288 288 288 289 289 289 289 292 294 293 292 290 290 290 290 289 290 290 290 291 291 291 292 293 292 292 292 292 292 294 292 290 290 289 289 291 289 289 289 289 288 289 290 291 289 291 288 288 286 286 287 287 288 287 287 287 286 286 287 287 287 287 287 286 286
292 292 291 291 291 291 292 293 293 294 296 296 297 297 297 298 298 298 298 297 295 293 290 288 288 288 290 291 291 290 290 290 290 290 290 290 289 289 290 290 290 291 293 292 292 292 292 292 293 294 293 292 290 289 289 289 289 289 289 290 291 291 291 291 290 287 287 287 286 286 287 287 287 286 286 286 287 287 287 286 286 286 286 285 286
291 289 287 289 291 291 292 292 293 293 295 295 296 297 298 298 298 298 298 297 297 298 297 293 289 288 290 289 290 289 289 289 289 289 289 289 289 289 290 291 291 291 294 298 297 297 294 293 293 293 293 291 290 289 289 292 289 288 288 287 289 288 287 287 287 288 286 287 287 287 286 286 286 286 286 286 286 286 286 286 286 286 286 286 286
291 290 291 291 291 292 292 293 295 296 295 296 296 296 297 297 297 298 297 298 299 299 298 298 293 289 289 289 287 288 289 289 289 289 289 288 289 291 291 291 291 290 290 294 294 296 295 295 296 295 293 292 292 289 290 289 289 289 290 287 287 287 286 286 286 285 286 285 286 286 287 286 287 287 287 287 287 286 286 286 286 286 286 286 286
290 290 290 291 292 292 293 293 294 294 290 291 293 296 296 297 296 298 297 297 297 297 300 297 293 292 291 290 288 288 287 288 288 288 288 288 289 292 292 293 292 292 291 293 294 294 294 294 296 294 293 291 291 292 290 290 292 290 287 287 286 286 286 286 286 286 286 286 286 285 285 285 286 286 286 286 286 286 286 286 286 286 286 286 285
291 290 291 292 292 292 292 292 292 289 291 293 296 296 295 294 294 294 293 291 293 293 297 297 295 295 291 289 292 291 288 287 288 287 288 287 288 289 291 291 293 292 291 293 294 295 294 294 294 293 293 293 292 293 290 289 288 287 286 285 285 286 287 285 286 286 285 285 285 285 285 285 285 285 285 285 286 286 286 286 286 285 286 286 286
292 289 287 287 288 291 291 291 291 291 293 293 294 292 290 291 292 292 292 293 292 292 292 297 297 296 295 293 292 290 290 289 287 288 287 288 289 290 291 292 292 292 292 293 294 294 293 293 293 293 292 293 293 291 289 288 288 286 286 286 286 285 285 286 285 285 286 285 285 285 285 285 285 285 285 285 286 286 286 286 286 286 285 286 286
291 292 290 287 289 290 291 290 290 292 292 291 291 290 290 289 289 289 290 290 291 291 292 291 293 294 295 294 292 293 289 289 290 289 288 288 289 290 291 291 292 291 291 290 292 292 292 291 291 290 293 292 290 289 289 288 287 286 286 286 285 284 284 284 285 286 285 285 285 285 285 285 284 285 285 286 286 286 286 286 286 286 286 286 286
292 291 289 289 289 291 291 292 292 291 290 289 289 289 288 288 289 289 290 289 289 290 291 292 293 290 289 287 286 288 293 292 292 291 290 289 289 290 290 292 291 291 290 290 289 290 290 290 289 290 290 289 288 288 288 288 287 287 286 286 285 285 285 285 286 285 284 284 284 285 284 284 284 284 285 286 287 287 286 286 286 286 287 286 286
293 293 294 294 294 293 294 292 292 290 290 289 289 288 288 288 288 289 288 288 289 289 290 291 291 290 288 287 287 287 292 294 294 292 292 292 290 291 291 292 293 292 290 290 290 290 289 289 290 289 289 289 289 288 287 287 286 285 286 286 285 284 285 285 285 284 284 284 283 284 283 284 284 284 285 288 286 286 286 286 287 287 287 287 286
296 295 296 295 295 294 293 293 292 291 289 289 288 288 288 288 288 288 288 287 287 287 288 288 290 290 289 288 288 289 292 292 289 290 290 290 291 291 291 291 291 291 292 292 292 291 289 290 289 289 288 287 288 288 287 287 287 286 286 285 285 284 284 284 284 284 284 283 283 283 283 283 284 284 285 286 286 286 286 286 286 287 287 287 286
295 295 295 295 294 294 293 293 292 291 289 288 288 288 288 288 288 288 288 287 287 287 287 287 288 288 289 289 289 289 290 290 290 289 289 288 289 289 290 290 291 290 289 289 289 289 290 289 288 288 288 288 288 287 288 287 287 286 286 285 285 285 284 284 283 283 283 282 283 283 283 284 284 285 285 286 286 286 286 286 286 286 286 287 287
296 295 295 295 295 294 293 293 292 292 290 290 289 288 288 289 288 287 287 287 287 287 287 286 287 287 288 288 288 288 288 288 288 289 288 288 288 289 289 289 289 288 288 288 289 289 289 289 288 287 287 288 288 287 287 287 286 286 286 285 284 284 283 282 282 282 282 281 282 283 284 284 283 284 284 285 286 286 286 286 286 286 286 286 286
294 294 294 295 293 293 293 293 291 292 291 290 290 289 289 289 288 287 287 287 286 287 287 287 287 287 287 287 287 287 287 288 288 288 288 288 289 289 289 289 289 288 288 288 288 288 288 288 287 287 287 287 287 287 287 285 286 287 286 284 283 282 282 282 282 282 282 281 282 282 283 283 283 284 284 284 285 286 286 286 286 286 286 286 286
295 294 294 294 293 292 292 293 293 292 292 291 289 290 289 289 289 288 287 287 287 287 287 287 287 286 286 287 287 287 287 288 288 288 288 288 288 288 289 289 289 289 288 288 288 288 288 287 287 287 287 286 286 286 287 287 287 285 284 283 282 281 280 280 282 282 282 282 282 282 283 283 283 283 284 285 285 286 286 286 286 286 286 287 287
295 295 295 294 294 294 293 293 292 290 291 290 290 289 289 289 289 288 288 288 288 288 288 287 287 287 287 287 287 287 287 288 288 288 288 288 288 288 288 288 288 288 288 287 288 288 288 287 287 287 287 286 286 286 286 286 285 284 282 281 280 280 279 279 280 282 282 281 282 282 282 283 283 283 283 284 285 286 286 286 287 287 287 287 287
295 295 294 294 294 294 293 293 292 292 291 292 290 290 289 289 289 289 289 289 289 289 289 288 288 288 288 288 288 288 288 287 287 287 287 287 287 288 288 287 287 288 288 287 287 287 287 287 287 287 286 285 285 286 285 284 283 282 281 280 279 279 279 279 279 280 280 281 282 282 282 282 282 282 283 284 285 286 287 287 287 287 287 287 287
294 294 294 293 293 292 292 293 293 293 292 292 291 291 290 291 290 290 290 289 289 289 289 289 289 289 289 288 288 288 288 287 287 287 287 287 287 287 287 287 288 288 287 287 288 288 287 287 286 286 285 285 285 284 283 282 281 280 279 279 278 278 278 278 279 279 279 280 280 281 281 282 282 282 283 284 285 286 287 287 287 287 287 287 287
292 293 292 292 292 292 293 293 292 292 292 291 291 290 290 290 290 290 290 290 290 290 290 290 290 290 290 289 288 288 288 288 288 287 287 287 287 287 287 287 287 287 287 288 288 288 287 285 286 286 285 284 284 283 281 280 279 278 278 278 277 277 278 278 278 279 279 280 280 280 281 282 282 282 283 285 285 285 286 286 287 287 287 287 286
Wind_Speed
14 7 4 7 8 6 5 5 5 4 6 6 5 5 4 5 4 5 4 3 3 3 3 3 3 3 4 4 3 3 2 0 1 0 0 2 3 1 1 2 5 4 2 2 3 3 2 4 3 4 4 4 6 2 2 1 2 3 3 6 6 6 4 8 7 5 2 0 1 3 1 3 2 7 7 5 4 4 5 7 8 6 5 5 4
9 10 7 5 7 7 6 5 4 5 6 4 5 5 5 5 4 4 3 3 4 3 3 3 3 3 4 4 3 4 3 2 1 1 1 3 2 1 1 1 4 3 0 4 3 2 3 4 4 3 3 3 3 5 4 5 3 3 8 5 6 5 6 5 6 5 3 1 1 4 2 1 0 5 5 2 3 6 7 6 6 7 7 6 6
10 8 7 4 3 3 4 2 2 3 9 7 5 5 5 5 4 4 4 3 3 3 3 3 3 3 3 3 3 3 3 3 1 1 3 1 1 0 1 2 3 1 0 1 3 2 3 2 3 1 2 4 3 3 3 4 5 5 5 5 5 5 4 3 2 4 6 3 3 4 2 1 0 2 6 5 3 2 3 4 4 6 8 9 6
8 10 8 7 6 5 4 4 4 2 2 5 4 5 5 4 3 4 4 3 3 3 3 3 2 1 3 3 3 4 3 4 1 1 2 1 1 1 0 1 1 1 0 1 3 3 2 1 3 2 1 0 3 3 2 4 6 6 3 2 4 4 4 3 3 3 2 5 1 5 3 1 2 1 5 5 3 3 1 3 3 4 4 3 8
6 7 8 7 6 6 8 5 5 3 9 10 0 6 6 6 5 6 4 4 4 3 3 4 3 3 3 3 3 3 3 4 2 1 3 1 1 1 1 1 0 1 1 3 4 4 3 1 3 2 2 2 1 3 5 5 5 6 6 5 5 4 1 2 2 3 3 3 2 3 4 1 1 2 0 2 3 2 0 1 1 1 4 2 2
4 4 5 8 6 7 8 5 4 9 8 3 8 2 6 4 6 5 5 5 3 3 3 4 4 4 3 2 2 3 3 5 4 2 2 2 1 1 1 2 7 10 11 13 14 8 2 1 3 2 4 2 2 3 3 3 3 3 4 4 3 5 5 2 2 1 4 3 4 2 0 2 2 0 2 3 3 2 1 1 2 4 2 1 1
6 4 2 2 3 5 7 7 7 9 7 7 6 4 0 4 6 6 6 6 5 4 3 4 3 2 4 11 15 15 13 11 8 4 3 3 5 9 12 10 9 5 2 2 2 5 8 9 5 5 4 3 3 3 1 2 1 2 3 3 3 4 5 3 3 3 5 4 3 2 2 3 1 0 0 2 2 3 2 6 5 4 4 4 3
0 2 3 3 6 6 6 4 3 7 7 6 2 1 1 6 5 5 5 4 3 3 5 7 7 9 9 8 7 7 5 4 3 5 5 6 5 5 2 2 3 4 0 4 2 2 1 3 4 2 1 2 2 3 2 1 1 2 2 2 4 3 3 4 5 6 4 3 1 0 0 1 2 0 0 2 2 3 3 2 4 4 5 2 2
5 1 2 1 2 4 6 5 5 8 7 4 3 3 4 4 4 5 5 4 4 6 5 4 4 6 11 9 7 4 1 2 4 4 3 2 3 6 7 3 3 4 1 4 2 1 2 3 1 2 1 4 6 6 5 5 3 3 4 3 3 3 3 3 3 4 3 1 0 2 2 2 1 1 1 2 1 2 1 1 1 2 2 4 4
7 9 6 7 8 7 9 8 7 6 5 5 5 4 4 5 2 5 5 4 4 4 4 4 4 6 7 6 7 6 2 3 2 2 1 2 5 7 8 6 4 0 2 2 3 4 5 6 5 7 6 4 7 8 8 9 8 5 2 4 4 3 0 0 2 3 3 2 2 2 1 1 1 0 2 1 1 0 2 1 2 3 4 4 5
9 8 8 4 3 5 6 6 6 6 6 7 7 4 6 4 3 5 4 4 4 4 4 5 6 5 5 4 2 3 4 3 5 3 4 4 2 4 4 3 3 2 2 3 3 3 3 5 4 5 5 4 5 7 9 10 9 9 9 7 5 3 3 2 1 1 1 3 4 5 4 1 1 1 2 3 5 4 3 4 5 5 4 4 4
6 6 6 5 5 3 2 3 7 6 5 6 6 5 6 4 4 5 4 4 3 4 5 5 5 5 4 4 2 1 2 4 3 2 1 5 4 1 1 3 4 3 4 4 4 3 4 3 4 3 2 2 3 6 7 9 9 8 8 8 9 8 7 4 2 3 3 3 5 5 5 3 3 6 4 3 4 3 3 3 3 3 4 4 4
8 8 6 6 6 4 4 5 6 3 5 6 5 6 3 3 4 4 3 3 4 4 4 5 4 3 3 5 4 2 2 3 2 2 4 1 3 3 3 6 7 6 6 5 3 4 3 5 4 3 4 3 1 5 5 5 5 6 7 7 7 7 8 7 5 3 2 1 2 4 3 4 4 5 4 2 2 3 4 5 5 5 4 4 4
6 7 6 5 3 2 3 4 5 3 3 3 4 5 4 3 3 3 3 3 3 3 3 5 4 3 3 3 3 4 3 2 1 4 2 3 3 2 2 1 2 3 2 2 2 3 3 2 3 5 3 5 7 4 5 4 3 2 3 2 3 5 6 7 8 6 1 1 0 2 3 5 5 3 5 4 4 3 5 4 4 4 4 5 5
7 8 10 10 9 6 5 3 5 4 3 2 1 3 3 3 2 2 3 3 3 3 4 4 5 4 4 3 5 4 2 2 2 1 1 4 6 3 2 1 2 3 3 2 4 6 5 4 5 7 6 6 6 6 3 0 4 5 4 6 5 4 4 4 4 4 5 5 4 5 4 4 4 4 4 4 4 2 1 2 4 4 6 6 6
7 4 4 4 6 8 8 8 9 11 9 6 4 3 2 3 4 2 2 3 3 3 2 3 6 6 6 6 6 4 3 3 2 2 1 1 4 2 3 2 3 4 4 9 8 7 6 6 3 8 6 6 7 11 7 4 3 1 5 6 5 4 4 2 3 4 4 3 3 3 2 2 3 2 2 2 3 3 3 3 4 4 5 5 5
6 7 8 7 5 3 3 4 2 6 11 12 10 7 4 3 2 4 4 4 3 3 3 4 6 7 7 6 6 4 3 4 3 3 1 2 2 1 3 2 6 4 7 8 7 7 7 6 5 7 7 6 8 11 11 7 3 4 2 7 6 5 4 2 2 4 6 7 7 6 5 4 3 4 3 3 2 2 1 2 3 4 6 6 5
10 10 9 9 7 6 6 3 2 4 1 5 9 10 9 8 6 5 5 5 6 5 5 4 3 6 8 7 6 6 4 5 8 5 4 2 1 1 3 2 7 6 8 8 6 6 8 14 10 7 7 5 8 11 11 7 4 4 5 4 8 6 4 3 2 2 3 3 4 2 1 1 2 3 3 3 4 2 0 1 2 2 5 4 5
10 9 9 8 9 7 6 8 7 5 5 6 3 3 4 3 7 8 6 7 6 7 8 6 6 5 8 8 10 7 4 4 7 7 6 4 1 2 2 3 5 6 8 8 7 6 6 8 11 9 6 6 10 10 12 8 5 7 8 8 5 7 3 4 3 2 0 1 1 1 2 4 3 3 4 8 8 7 3 3 2 2 4 5 5
10 9 8 7 6 6 5 4 3 5 6 5 2 3 1 1 1 2 1 3 6 7 6 5 6 5 6 9 8 6 5 3 6 8 6 5 3 2 2 3 4 5 6 9 7 6 6 5 6 9 11 10 10 11 12 12 7 6 6 6 5 4 5 3 3 2 2 3 3 2 3 2 4 4 4 5 6 4 4 5 5 4 3 5 6
9 8 7 7 8 9 8 7 6 2 1 2 3 2 1 1 2 1 1 2 3 0 6 4 7 5 8 8 7 7 6 5 5 6 4 4 2 1 2 3 3 3 4 9 8 8 6 5 4 5 11 11 11 11 11 11 9 6 5 4 2 2 4 3 1 1 2 4 3 4 5 5 5 5 5 5 4 5 6 6 5 3 3 5 5
8 8 7 8 8 8 8 8 6 6 6 4 3 3 3 1 2 3 1 2 2 3 1 1 4 7 7 6 5 7 9 11 5 6 5 7 3 1 1 3 2 2 4 0 8 6 7 6 5 5 10 12 12 11 11 11 10 6 4 3 3 7 4 3 3 3 4 5 4 4 3 3 3 4 3 2 3 2 2 0 1 3 2 1 2
6 7 7 7 7 7 6 6 6 4 4 5 4 6 4 2 0 0 2 2 3 2 2 2 1 2 5 5 5 5 8 8 11 7 7 5 6 4 4 2 5 4 4 4 8 7 7 7 5 8 11 11 11 10 8 9 8 4 4 5 6 7 4 2 3 4 3 3 3 4 5 5 6 4 3 7 7 4 2 1 2 1 1 1 3
5 5 5 5 5 6 7 7 6 5 4 3 4 4 4 3 4 3 4 3 3 4 4 4 3 3 4 5 5 5 8 7 10 12 7 6 6 4 6 6 7 5 3 4 6 7 8 7 7 9 10 11 11 10 9 8 4 3 2 3 6 4 2 3 5 5 3 2 1 4 3 2 6 6 6 5 5 4 5 4 4 4 5 6 5
6 5 6 6 6 6 5 5 5 5 6 6 5 4 4 4 4 2 2 4 4 4 4 4 4 4 4 4 5 5 7 6 7 8 9 4 5 6 7 9 10 7 4 4 6 6 10 13 13 11 11 12 12 10 7 5 3 1 2 4 3 2 2 4 4 3 3 3 3 2 4 4 3 4 4 4 4 3 3 4 4 5 5 5 4
8 7 7 7 7 9 9 8 8 7 7 6 5 5 6 4 4 4 5 5 4 4 5 5 5 3 3 4 3 2 2 6 6 6 5 4 4 6 8 9 12 13 11 8 12 16 16 13 12 11 11 9 6 4 3 3 4 3 3 1 2 2 5 1 4 4 3 4 3 2 2 3 5 5 6 6 6 7 6 6 6 6 5 5 6
9 8 8 8 7 7 8 7 6 7 7 7 7 7 5 5 5 5 6 6 7 7 6 7 4 3 0 4 5 5 5 1 3 7 5 5 4 4 5 7 11 12 10 8 9 9 10 8 6 7 7 7 3 1 7 5 2 0 2 2 3 4 0 4 2 1 5 4 3 1 3 5 6 6 6 6 6 6 5 5 5 5 6 5 5
8 9 10 9 8 8 8 9 10 8 7 7 7 6 5 5 6 6 5 5 4 2 1 3 2 1 3 3 3 3 4 5 3 2 4 6 6 5 5 6 5 6 7 6 7 7 6 6 6 4 4 2 2 2 4 4 4 3 3 5 5 3 5 4 2 3 3 5 2 4 3 5 5 5 5 5 5 5 6 6 6 6 5 6 5
7 9 9 9 8 8 8 8 8 7 8 9 8 7 8 7 8 6 5 3 4 5 5 4 3 4 6 4 3 3 3 5 6 4 3 3 5 5 5 6 6 6 9 12 8 6 6 5 4 4 4 4 4 4 4 4 3 5 3 1 5 3 1 3 4 1 3 5 5 5 4 4 4 4 3 4 4 4 5 5 6 6 6 5 6
8 7 6 6 7 8 7 8 8 8 8 8 8 9 11 10 4 5 4 2 3 1 1 4 4 6 5 5 7 7 6 6 10 9 8 5 4 9 10 8 9 7 14 17 10 6 5 4 4 4 4 4 5 4 6 5 6 1 4 4 0 1 3 3 3 2 2 5 2 3 2 2 2 2 3 2 3 3 4 4 4 4 5 4 5
7 8 9 7 6 7 8 8 8 9 9 9 7 7 7 3 9 10 9 3 2 6 4 2 3 3 8 6 4 11 12 11 11 14 14 10 8 6 10 15 13 16 18 11 6 6 5 5 5 5 5 5 6 8 4 4 4 3 3 5 3 3 1 1 1 1 1 2 2 1 1 3 1 1 1 1 2 3 3 4 3 4 4 5 6
8 8 8 8 8 7 9 9 9 8 9 9 9 8 8 8 1 7 10 8 7 7 8 9 9 8 4 9 8 2 4 8 10 14 16 15 17 16 17 15 16 19 17 15 7 6 5 5 5 5 6 6 5 4 5 3 3 2 1 1 3 4 2 2 2 2 2 2 2 1 1 1 1 1 0 1 2 3 4 4 3 4 4 4 5
10 9 9 9 8 10 9 9 10 9 10 9 8 8 8 8 9 3 2 6 7 8 7 6 10 10 11 10 10 9 7 10 14 13 12 7 5 5 6 13 17 16 14 6 5 5 5 5 5 7 5 4 3 5 4 3 3 2 0 1 2 1 3 2 0 3 2 1 2 1 1 0 1 1 1 2 3 4 4 4 3 3 3 3 4
9 8 7 8 9 8 8 9 9 10 10 10 9 9 9 10 9 10 4 1 1 3 6 9 9 10 9 13 14 13 11 10 9 10 12 13 12 12 10 6 9 12 8 5 4 3 4 4 3 4 5 4 4 4 4 3 4 2 1 1 1 1 3 2 4 4 2 4 3 3 1 1 1 0 2 3 4 4 4 4 4 3 3 3 3
8 8 10 8 8 7 8 8 9 9 9 10 10 9 8 8 10 6 6 4 2 2 2 2 5 10 5 3 10 12 12 12 14 13 10 11 12 12 12 8 4 1 1 1 2 2 2 3 2 2 5 4 5 5 4 3 3 2 1 1 0 3 3 2 3 5 2 2 2 2 2 2 2 2 3 4 4 3 3 3 3 3 3 3 4
7 6 6 6 6 6 7 7 7 7 8 9 9 9 8 7 6 7 7 4 3 3 6 4 3 4 7 7 3 6 9 11 13 14 14 14 14 15 8 5 5 5 4 4 3 3 3 4 3 3 4 5 5 4 3 3 4 3 1 3 2 2 3 4 3 3 1 2 4 2 1 1 0 1 1 2 2 3 3 3 4 4 4 4 4
7 6 6 6 6 6 7 8 8 8 10 10 11 9 7 6 3 5 6 6 2 4 2 5 5 3 5 5 5 6 5 5 7 9 11 14 15 10 6 8 7 6 6 5 5 5 3 4 5 6 5 4 4 4 4 4 4 4 4 0 2 1 3 2 2 0 1 2 2 3 5 4 3 3 3 3 2 2 3 3 3 4 4 6 6
6 6 5 5 5 6 7 7 8 9 9 9 6 7 7 8 8 6 4 4 3 1 5 2 2 5 6 6 7 4 5 7 9 7 4 3 3 3 3 3 4 5 5 6 5 5 4 4 6 5 3 4 4 5 4 4 3 4 4 3 1 2 5 3 4 1 0 2 3 4 4 4 6 5 4 3 3 3 3 3 4 4 5 6 5
3 6 7 9 7 5 6 7 8 9 8 5 5 6 8 8 8 7 7 5 3 2 3 1 3 1 3 6 5 6 6 3 2 2 3 3 3 3 3 3 4 4 5 5 6 5 5 6 5 5 5 4 2 4 4 4 4 4 4 0 2 3 2 0 3 2 1 4 5 4 4 4 6 5 5 4 4 4 4 5 4 4 5 5 5
4 4 6 7 5 5 6 7 8 7 5 8 8 8 7 7 7 6 6 5 6 6 3 1 4 5 3 5 5 5 3 2 2 2 2 2 3 3 4 4 4 3 4 2 4 5 6 6 6 3 1 3 4 4 4 4 3 4 5 1 2 4 4 4 5 6 4 4 3 4 5 4 3 2 2 2 2 3 4 4 4 4 4 5 5
3 5 5 6 7 6 7 8 3 7 7 7 7 8 7 7 7 5 5 5 5 5 4 5 5 4 5 6 8 6 1 3 3 4 3 3 3 4 4 4 3 3 4 5 4 4 4 4 4 2 2 5 4 5 4 4 1 0 5 7 6 5 5 6 6 5 4 3 4 5 4 3 3 2 2 2 3 4 3 3 4 5 5 6 5
4 5 5 5 6 6 4 3 7 7 8 7 7 6 7 6 5 5 5 5 4 5 4 5 6 5 8 11 8 9 5 0 3 3 4 3 2 4 4 1 7 5 5 4 4 4 4 4 3 3 4 4 4 5 5 1 1 5 6 6 5 5 6 5 4 5 5 5 4 4 3 4 4 4 3 3 3 3 4 4 5 6 5 5 5
5 6 6 6 2 3 5 5 6 5 3 4 4 5 5 6 5 5 5 5 6 6 6 4 3 4 3 4 4 4 3 5 6 6 4 2 2 3 4 5 4 4 5 3 2 3 3 4 5 7 7 8 7 6 6 6 5 5 6 5 5 5 5 4 5 5 5 4 4 4 4 4 4 4 4 3 4 4 4 5 5 5 5 6 5
4 3 4 4 4 4 5 5 5 4 2 3 4 4 6 6 5 6 5 4 4 4 3 3 2 2 3 4 5 5 4 3 6 5 4 3 4 4 4 5 6 7 9 8 6 4 8 8 6 5 6 7 7 7 7 6 6 5 5 5 5 5 5 4 5 4 4 3 3 4 4 4 4 4 3 3 3 4 4 5 5 6 6 6 5
4 4 4 4 4 4 5 5 4 4 5 5 3 4 5 5 6 5 5 5 4 4 3 3 3 3 4 6 6 6 6 6 6 6 5 4 4 5 5 7 10 9 7 7 6 6 6 6 7 6 6 6 6 6 5 5 5 5 5 6 5 6 5 5 4 3 3 3 3 3 4 4 4 4 4 4 4 4 4 5 6 7 7 4 4
4 3 2 3 3 4 4 3 3 3 4 3 3 4 4 5 6 6 4 4 4 3 4 5 6 6 6 6 6 6 6 7 7 6 6 5 5 6 7 9 9 8 7 7 8 9 8 7 7 7 7 6 5 3 5 4 4 7 8 7 6 6 5 4 3 3 3 3 3 3 4 3 4 4 6 6 5 4 5 6 7 6 4 5 5
2 1 3 2 3 4 4 3 3 4 4 4 3 3 4 4 4 3 4 5 5 4 6 6 6 6 5 5 6 6 7 7 6 6 6 6 6 6 7 7 6 6 6 7 7 7 7 7 7 7 6 5 5 6 6 6 7 7 7 6 5 6 5 4 3 3 3 3 3 3 3 3 4 4 6 6 5 6 6 7 7 4 4 5 5
1 1 1 2 3 3 2 2 2 1 3 3 4 4 3 3 4 3 4 4 5 5 5 6 6 6 6 6 6 6 6 6 6 6 6 7 6 6 5 5 5 7 9 8 7 6 5 5 5 6 6 5 4 5 5 6 6 7 6 6 6 6 6 6 4 4 4 4 4 4 4 4 4 5 5 6 6 7 7 6 5 5 5 5 5
3 2 2 2 2 1 0 1 2 2 2 2 5 5 5 4 4 4 4 5 6 6 6 6 6 5 5 5 5 6 6 6 7 6 7 6 6 5 6 7 6 6 5 5 5 5 5 5 6 5 4 4 4 5 6 7 6 6 5 5 7 9 8 8 5 4 5 5 4 4 4 4 4 5 6 6 7 7 5 6 6 6 6 5 4
5 3 5 6 5 5 5 5 4 0 3 3 4 4 5 5 5 4 4 5 4 5 5 5 5 5 5 6 6 6 6 7 6 6 6 4 5 4 4 4 4 4 4 3 4 5 4 4 4 4 4 4 7 8 6 6 5 4 4 5 7 7 7 7 5 7 6 4 5 5 5 5 5 6 6 7 7 5 6 7 7 7 6 5 3
5 6 6 5 4 4 4 4 4 4 4 4 4 4 4 3 4 5 5 5 4 4 4 5 5 5 6 6 6 6 6 6 6 5 4 4 5 4 5 6 5 4 3 3 4 6 4 3 4 4 6 7 7 6 6 5 4 4 7 8 7 8 8 8 6 8 9 7 5 5 5 5 5 6 6 6 5 5 7 9 8 6 6 5 3
Wind_Direction
175 192 191 158 154 162 172 176 162 152 138 138 149 141 130 130 128 119 129 139 142 164 151 162 155 156 141 143 140 131 134 148 60 91 71 84 90 112 186 118 108 109 120 111 63 51 59 118 82 32 17 33 8 305 18 334 80 52 74 95 58 34 77 108 103 103 77 53 150 103 59 357 143 140 150 158 173 225 162 159 155 167 162 168 184
160 167 200 178 174 166 167 188 172 143 126 143 148 143 132 142 133 125 133 154 150 180 166 163 163 171 159 155 150 149 154 134 205 103 70 56 54 355 26 341 78 74 95 95 73 66 16 68 61 23 26 34 1 14 14 4 329 103 48 44 54 47 33 99 120 134 150 252 127 122 163 178 276 124 104 116 190 203 171 176 174 166 173 168 178
168 168 183 159 154 148 165 147 134 153 144 164 148 142 136 132 141 131 151 153 171 176 180 158 166 174 149 166 151 153 172 143 176 125 83 103 91 17 353 48 68 56 323 133 148 110 76 80 108 66 0 33 341 23 350 25 350 57 83 67 72 49 44 53 100 134 152 181 174 160 132 79 17 132 136 183 189 216 215 165 164 162 159 173 175
170 164 161 169 159 147 164 114 74 3 128 147 145 138 134 138 138 148 160 161 179 191 151 166 171 188 177 177 176 152 182 133 153 92 140 133 148 99 320 43 48 152 333 300 115 133 119 83 96 114 69 351 5 349 354 36 20 1 34 105 97 92 43 17 47 94 99 146 146 90 133 191 223 247 150 164 208 261 268 145 207 171 172 141 147
183 161 154 156 153 122 99 122 135 51 18 351 100 147 153 158 167 164 175 157 172 190 152 178 169 206 211 194 198 163 153 156 126 108 81 39 0 26 359 346 54 310 319 347 21 62 40 350 46 2 66 20 30 341 41 35 18 360 35 24 30 20 68 86 63 56 60 61 95 154 165 201 135 92 52 82 143 238 59 96 283 343 69 99 278
156 147 159 165 150 138 118 141 112 76 68 109 289 227 162 161 162 164 170 166 168 177 170 181 180 192 195 209 243 198 103 80 82 54 40 359 11 176 300 29 8 20 20 13 346 347 348 12 66 22 4 47 349 41 53 41 14 2 25 28 7 29 356 45 6 108 92 73 46 15 348 96 68 340 53 62 20 341 294 229 163 116 124 82 272
47 336 2 87 125 114 133 172 147 120 162 206 215 325 15 168 161 170 173 166 167 161 190 195 169 203 43 22 26 16 16 3 12 18 15 4 3 10 19 30 19 340 130 147 173 28 8 332 353 19 38 20 25 2 20 53 38 42 16 7 11 38 3 3 12 36 89 73 40 54 359 337 83 106 299 116 182 254 5 12 4 0 21 7 338
19 293 333 26 58 70 110 123 146 167 175 190 145 82 88 60 56 49 38 54 56 67 36 39 38 53 67 77 76 72 101 216 314 20 18 8 16 70 176 215 147 235 310 50 36 116 133 303 315 13 9 52 32 33 29 60 35 20 30 5 37 39 11 340 23 8 59 101 107 223 240 244 290 167 94 57 4 36 61 20 2 346 331 318 321
144 86 8 92 75 109 106 145 179 162 165 165 113 35 27 80 98 87 83 82 76 74 78 56 50 73 75 76 60 42 124 74 44 10 16 88 59 63 17 312 236 240 82 141 149 77 49 275 241 269 76 87 78 78 61 37 33 54 18 358 358 22 12 4 36 355 324 61 162 176 205 251 281 260 33 24 26 60 332 44 316 290 306 338 325
152 166 195 161 169 165 152 158 194 163 152 126 102 84 54 0 64 93 96 100 103 98 97 103 80 79 93 104 139 187 207 103 78 92 102 204 173 131 180 219 238 185 137 193 149 178 174 208 216 162 138 129 106 99 89 71 61 65 54 33 19 357 266 351 345 315 317 340 306 294 263 205 231 74 116 151 180 1 14 355 311 306 355 336 320
162 174 164 146 130 130 132 159 132 111 102 105 108 141 135 157 132 118 117 121 120 113 111 105 99 95 110 127 174 186 125 93 65 33 352 340 78 148 163 158 230 151 196 196 195 187 183 195 154 149 149 143 116 103 81 84 89 91 81 78 69 52 15 15 286 298 327 332 338 324 308 309 77 76 68 53 46 44 34 19 360 348 325 315 302
110 118 106 116 113 107 16 117 122 130 140 133 159 162 125 151 136 125 123 128 120 118 102 89 102 119 122 136 108 92 108 96 76 79 33 31 32 49 132 166 219 190 216 202 195 181 146 144 162 171 178 138 139 113 78 63 72 75 79 89 83 75 70 88 52 33 42 24 1 345 332 5 23 55 44 45 19 17 25 10 343 357 352 346 329
69 78 82 96 103 104 106 79 98 111 105 105 89 108 149 140 129 128 135 106 103 111 121 137 124 121 142 139 147 130 97 74 40 40 41 28 39 1 274 212 197 214 199 203 178 188 180 158 153 142 116 131 235 121 113 96 64 95 107 96 86 79 90 90 81 84 29 14 1 350 44 325 32 57 40 41 345 25 13 11 13 1 347 322 300
119 117 121 117 80 25 101 117 110 82 66 89 127 126 129 126 100 113 110 114 111 111 130 118 130 155 161 134 127 120 118 148 147 57 346 346 343 303 250 71 34 97 59 68 56 70 73 73 115 126 102 55 33 67 124 134 150 146 132 127 78 52 43 37 21 6 3 280 215 266 19 32 53 55 43 35 47 26 26 352 357 332 310 279 284
149 140 150 154 164 178 157 165 144 140 159 162 182 123 108 113 112 117 125 141 137 147 142 158 160 163 153 154 127 139 135 136 120 111 23 335 346 311 296 189 143 86 82 56 52 35 26 27 63 79 73 55 34 31 55 209 184 157 140 103 96 85 69 63 59 42 31 27 20 43 51 35 44 43 31 29 45 48 28 296 283 274 273 273 272
49 39 57 88 120 135 148 153 156 161 162 181 168 147 148 154 165 157 142 145 145 157 162 159 152 157 161 143 137 141 151 157 156 146 36 0 320 272 261 202 116 103 82 62 52 34 21 357 46 85 70 57 11 24 22 351 345 162 130 116 111 101 76 37 60 84 93 84 74 76 78 89 75 74 63 39 27 16 354 327 311 287 290 297 288
52 34 38 36 37 66 104 95 103 137 146 152 154 162 174 159 148 160 156 161 163 166 163 160 159 163 147 142 143 144 151 173 197 182 153 344 322 271 268 204 111 111 94 84 66 48 23 5 65 79 70 47 14 27 10 8 340 321 160 142 137 127 124 145 141 105 103 114 125 126 133 127 90 99 90 87 93 73 4 340 301 356 346 318 306
22 28 20 12 8 27 31 103 104 71 98 137 141 153 162 166 159 174 169 166 166 169 166 174 175 155 147 150 152 153 160 170 186 187 189 95 22 275 302 238 128 126 107 108 102 83 52 51 58 76 75 53 32 39 17 8 340 323 298 162 147 135 125 131 139 80 68 69 74 90 129 215 201 203 212 197 182 196 147 228 271 333 283 281 291
10 11 8 6 5 7 14 4 12 13 6 31 51 119 126 141 155 178 175 172 169 169 180 175 178 154 159 152 153 151 152 176 199 198 169 163 183 286 321 281 151 151 135 128 121 107 85 71 74 85 89 75 60 45 34 21 38 28 24 33 42 96 123 160 146 128 154 229 235 231 276 244 233 224 229 211 204 208 212 224 259 219 243 266 285
357 357 355 352 335 343 352 355 13 353 350 5 0 28 43 85 36 154 195 199 175 180 171 178 162 161 135 137 151 150 155 179 195 198 171 163 183 288 270 275 204 141 133 128 129 120 110 100 75 87 91 79 66 56 43 41 47 44 37 48 52 37 344 18 64 54 14 326 307 265 261 223 193 218 228 212 218 199 200 216 228 227 222 243 252
345 346 342 342 349 352 357 358 3 324 283 308 334 307 216 135 21 355 305 294 326 265 178 175 155 143 136 147 153 150 158 168 189 192 162 157 180 170 302 358 22 132 174 138 148 138 131 107 107 91 96 88 79 68 62 54 60 62 64 69 77 287 325 13 32 0 262 266 274 270 256 261 247 216 215 224 211 190 210 228 247 267 291 298 307
333 331 344 347 347 343 342 350 345 343 342 345 332 333 344 64 192 219 228 286 296 304 24 103 151 151 147 147 160 152 164 168 176 214 203 153 133 163 345 56 18 337 50 66 120 126 123 128 122 125 101 94 86 76 67 64 64 81 81 107 81 45 15 323 293 245 236 228 238 267 299 319 326 326 287 272 132 212 246 299 11 339 339 342 340
317 327 340 332 331 327 321 316 314 307 308 318 318 303 300 301 307 233 200 228 258 261 182 222 221 125 143 148 158 151 153 165 172 187 217 170 145 102 83 60 355 25 51 28 122 128 115 116 118 126 109 98 90 84 82 85 75 75 62 25 20 3 342 308 292 307 323 329 342 347 334 301 288 297 8 31 26 28 39 110 216 218 243 297 357
323 318 313 309 303 304 307 302 309 317 299 266 259 276 289 281 268 225 200 208 216 225 221 169 174 219 191 169 179 164 157 164 177 176 186 199 146 138 92 70 50 61 36 82 128 121 124 129 135 132 112 103 91 83 76 73 93 128 9 13 6 351 322 303 276 258 258 275 310 275 277 347 15 16 37 15 353 334 326 332 343 351 359 356 355
318 315 313 312 313 303 293 296 294 293 290 303 302 276 251 246 249 258 279 235 227 230 218 184 186 211 226 216 193 184 155 163 159 170 165 153 123 102 76 64 51 56 76 87 114 118 123 128 134 129 119 110 108 95 83 86 116 195 301 354 356 301 281 265 286 10 349 315 289 353 15 14 13 46 24 346 327 333 339 341 356 1 356 352 344
330 328 323 316 311 306 302 302 299 294 296 288 272 267 276 263 242 233 233 237 233 239 246 230 218 225 227 223 225 234 174 149 151 133 127 126 85 63 77 77 75 70 72 76 101 115 124 131 131 126 116 116 120 137 141 164 209 233 313 349 281 262 256 300 26 7 333 315 355 26 26 26 20 15 2 356 355 352 353 346 354 344 354 340 339
326 323 315 311 307 304 304 293 290 288 281 278 275 272 263 263 255 236 229 233 231 227 227 243 238 152 108 44 39 41 55 328 175 160 165 147 131 128 108 97 104 99 93 99 99 105 118 127 140 136 131 133 45 64 128 138 139 248 240 215 226 248 245 64 35 310 276 276 275 318 53 41 32 22 10 4 347 340 348 346 350 342 356 342 334
330 324 322 315 311 307 303 316 318 309 297 289 287 287 281 266 257 256 246 234 240 269 17 67 84 110 114 100 80 70 83 65 352 290 200 165 152 150 150 143 150 139 127 125 122 123 123 117 121 114 121 136 201 190 177 181 188 186 228 215 231 197 107 114 61 299 322 303 16 51 39 36 30 19 3 351 337 341 354 353 351 340 345 341 328
306 304 307 307 307 308 300 288 282 286 290 292 285 276 271 276 279 283 289 277 192 199 192 187 176 131 133 133 107 92 129 148 157 55 327 311 139 159 152 170 176 165 144 132 124 127 134 144 151 153 158 185 188 205 190 185 204 212 184 71 16 344 192 144 211 208 49 52 38 29 21 29 25 13 356 343 351 351 350 345 340 334 334 332 312
306 291 283 296 308 307 297 295 292 285 278 270 273 278 283 290 357 287 286 328 45 137 196 198 187 160 145 160 170 179 184 172 155 171 195 256 179 186 201 168 198 164 139 141 140 138 156 160 168 175 174 185 199 209 207 175 168 168 111 97 91 301 45 14 333 65 80 65 51 41 22 55 25 25 0 334 333 340 331 334 322 326 315 309 309
299 305 311 299 287 273 285 294 301 300 301 299 293 282 265 256 44 27 23 35 141 140 132 130 65 107 152 152 178 160 152 155 169 190 173 156 146 217 208 193 190 143 140 131 139 146 162 174 184 191 198 189 200 203 173 131 145 158 164 163 187 125 118 282 358 118 150 109 37 37 42 54 21 358 313 328 317 315 303 287 281 280 281 290 293
311 308 302 297 323 335 326 320 313 308 301 292 286 291 302 298 314 39 35 37 32 69 92 91 85 89 143 148 140 69 128 158 174 171 166 166 167 188 202 178 154 152 152 144 138 164 169 183 191 199 201 191 181 133 106 116 110 94 97 163 192 164 143 237 184 222 134 145 156 86 58 295 253 240 273 282 322 299 286 283 271 273 274 274 276
313 306 307 320 331 338 335 328 323 314 303 299 303 307 300 298 294 270 49 38 51 26 24 82 102 97 88 99 123 133 142 132 118 104 84 55 83 108 145 148 151 149 137 137 155 166 184 195 198 201 178 162 133 113 123 122 116 122 132 75 31 164 178 137 113 3 13 98 130 185 149 83 11 24 9 343 307 285 282 280 274 270 280 293 296
309 314 329 336 326 318 313 308 306 307 307 311 317 319 317 314 308 311 301 197 347 44 46 32 35 61 86 109 114 114 115 102 94 101 116 130 129 128 132 148 155 155 149 160 155 187 188 192 210 181 142 140 125 121 113 123 128 131 116 115 212 22 81 59 68 76 48 18 9 27 40 82 83 318 273 258 252 255 261 262 266 273 287 293 305
310 312 319 318 310 303 298 294 289 291 306 316 314 316 317 311 305 308 331 350 291 209 187 77 16 25 40 85 129 126 125 123 121 117 121 127 131 139 118 116 135 199 279 223 163 214 217 176 194 135 132 124 118 120 131 132 120 111 151 160 24 73 67 50 80 84 46 332 311 260 224 213 205 212 224 252 268 281 290 311 321 320 320 318 311
311 309 299 295 293 289 292 295 315 323 322 312 306 297 288 301 327 330 318 318 12 40 65 53 88 19 54 50 34 121 134 145 146 150 152 150 152 142 143 173 169 181 182 189 203 227 219 163 153 130 106 110 113 125 134 111 113 173 176 100 128 107 88 58 65 48 355 285 274 297 347 328 227 236 267 297 323 348 349 346 340 346 336 321 306
308 305 305 299 312 327 332 327 315 315 311 302 292 290 295 296 289 295 309 311 37 2 39 124 116 73 75 69 41 58 96 123 138 152 165 166 176 173 176 169 176 168 178 185 201 224 201 155 123 104 106 125 140 146 137 148 174 113 92 141 92 89 110 125 110 160 253 298 330 4 357 344 8 8 25 7 354 341 341 0 6 344 324 301 297
300 299 314 0 343 328 318 305 305 304 297 286 308 316 335 348 340 334 327 317 324 186 155 196 215 162 159 146 181 173 111 101 97 86 89 102 188 230 225 189 180 170 177 192 200 205 185 128 116 122 143 138 150 159 137 127 94 113 140 134 203 186 145 175 165 160 96 290 1 21 17 0 359 358 5 15 5 15 14 358 323 293 288 291 293
316 18 360 337 338 321 313 302 294 293 289 321 339 351 353 345 340 343 337 331 326 6 333 194 178 141 100 124 127 126 130 125 155 151 160 185 198 213 227 216 196 193 173 187 214 210 141 118 95 109 118 141 168 93 114 117 114 97 80 301 260 133 160 92 130 166 86 38 9 358 14 19 27 13 4 7 19 6 326 290 278 275 279 285 291
349 317 317 304 286 284 270 280 279 275 350 8 1 357 346 357 345 339 333 341 343 336 331 321 43 69 93 121 144 174 143 144 153 136 136 166 186 212 230 239 204 168 158 119 58 57 90 100 111 87 91 119 89 94 83 72 87 143 174 177 65 54 41 47 62 55 37 18 357 4 34 32 16 353 319 329 316 286 280 281 277 278 285 290 293
300 285 275 279 272 277 280 269 318 37 25 16 359 358 349 342 328 325 330 341 342 337 346 342 49 49 24 30 33 25 100 160 156 140 153 167 183 207 225 234 165 131 104 101 99 85 82 98 116 136 130 91 90 93 90 77 325 65 86 65 56 46 24 45 56 54 21 6 14 37 26 353 306 302 316 326 317 296 296 311 322 316 299 288 283
276 280 275 282 283 271 261 43 52 45 30 16 10 1 351 340 341 342 339 340 347 346 349 16 54 69 30 20 11 5 359 224 137 140 134 167 184 201 236 109 85 92 97 89 86 109 116 136 153 133 101 98 107 109 110 112 36 58 70 67 60 41 40 48 46 43 30 18 10 25 353 310 301 324 333 333 316 332 340 331 311 298 292 295 297
294 268 269 266 284 31 31 50 50 37 35 25 14 7 358 355 0 352 0 3 17 21 20 14 21 42 50 6 5 359 17 40 63 48 45 39 52 81 81 88 87 78 77 79 97 121 126 109 79 66 69 63 42 44 64 54 43 59 68 81 66 56 56 40 37 33 23 10 0 336 314 310 341 334 328 357 13 344 314 299 296 302 303 299 299
310 348 344 28 39 52 42 40 44 65 78 60 47 29 11 10 9 8 3 15 19 20 34 16 355 23 53 43 44 60 61 61 70 74 64 55 55 66 69 76 71 57 42 29 7 41 78 82 91 80 71 69 63 53 47 41 47 49 43 61 77 64 56 44 40 24 16 355 331 324 327 340 339 327 357 354 322 304 300 302 306 307 303 296 303
360 26 3 19 33 39 47 41 30 55 68 75 55 40 27 26 22 9 7 10 12 20 22 20 28 48 62 54 56 60 64 68 70 69 68 62 62 56 56 61 63 62 54 41 45 61 75 75 77 79 71 68 74 75 62 59 47 55 55 53 61 61 53 41 32 359 345 343 338 340 338 339 337 330 324 317 304 300 304 308 305 302 293 296 317
5 18 330 338 48 57 45 50 48 48 66 66 64 56 52 43 33 22 15 13 13 19 32 42 48 49 53 57 58 59 60 65 65 61 62 57 52 55 58 67 71 67 64 61 54 54 57 65 70 69 64 52 37 76 108 107 85 67 64 60 60 59 47 25 2 349 333 347 352 345 333 333 320 318 301 293 298 310 305 300 297 279 289 309 306
63 230 241 256 70 83 73 56 48 58 59 64 69 67 60 49 38 39 29 28 32 44 53 57 58 51 52 55 59 58 59 62 63 61 59 58 52 48 52 63 68 71 74 69 63 57 56 60 65 68 70 70 56 40 43 54 68 73 64 61 59 54 44 16 351 333 344 358 345 329 328 316 300 295 300 306 309 303 300 294 277 293 305 298 303
249 335 46 56 62 80 96 109 157 214 100 107 107 101 76 65 60 46 53 53 52 51 59 62 56 52 54 54 55 55 55 56 54 52 49 46 42 47 61 76 75 69 60 54 52 55 58 61 73 71 66 61 64 52 50 58 64 71 74 66 54 46 31 17 349 349 352 338 306 294 295 297 305 303 297 298 295 296 291 286 299 300 292 291 291
10 4 41 52 55 52 117 153 157 132 109 110 127 130 116 104 84 83 74 70 66 70 66 62 57 56 59 60 62 63 58 54 52 51 51 48 40 45 55 58 64 78 89 88 80 78 68 53 55 66 72 63 64 78 63 58 60 63 63 62 48 37 23 10 356 354 336 318 318 315 303 295 286 284 287 288 287 280 290 309 306 304 299 293 294
7 5 48 41 32 34 23 15 344 48 122 108 88 106 134 138 128 112 99 90 84 82 78 72 73 72 72 71 70 68 67 64 55 42 39 39 45 48 65 75 77 80 88 108 110 92 83 76 73 70 66 58 62 66 65 59 55 57 60 60 46 27 14 6 351 350 340 326 312 296 292 282 278 273 274 278 281 305 312 303 304 302 298 302 299
17 10 43 49 45 37 25 6 331 360 52 59 71 73 66 68 97 113 119 115 118 119 118 108 99 90 85 76 72 69 71 74 75 67 42 36 34 39 46 45 45 53 59 72 93 91 81 83 85 77 63 57 62 67 67 64 55 59 67 52 34 19 9 0 353 338 333 323 305 288 271 265 266 276 278 282 299 305 295 293 293 305 311 308 330